| time (UTC) | temp C | wind direction | speed KPH | gust KPH | rain 1hr cm | rain 24hr cm | rain mn cm | humidity % | barometer mb |
| 20260905234542 | 21 | 0 | 0.0 | 1.6 | 0.00 | 0.00 | 0.00 | 72 | 1015.6 |
| 20260905233045 | 22 | 0 | 0.0 | 3.2 | 0.00 | 0.00 | 0.00 | 70 | 1015.7 |
| 20260905231543 | 23 | 27 | 1.6 | 4.8 | 0.00 | 0.00 | 0.00 | 67 | 1015.8 |
| 20260905230048 | 25 | 308 | 0.0 | 1.6 | 0.00 | 0.00 | 0.00 | 65 | 1015.7 |
| 20260905224540 | 25 | 356 | 0.0 | 3.2 | 0.00 | 0.00 | 0.00 | 67 | 1015.6 |
| 20260905223043 | 24 | 314 | 0.0 | 4.8 | 0.00 | 0.00 | 0.00 | 66 | 1015.3 |
| 20260905221603 | 25 | 33 | 3.2 | 8.0 | 0.00 | 0.00 | 0.00 | 64 | 1015.2 |
| 20260905220041 | 25 | 53 | 1.6 | 4.8 | 0.00 | 0.00 | 0.00 | 68 | 1015.4 |
| 20260905214542 | 25 | 318 | 0.0 | 3.2 | 0.00 | 0.00 | 0.00 | 69 | 1015.3 |
| 20260905213056 | 25 | 39 | 0.0 | 3.2 | 0.00 | 0.00 | 0.00 | 68 | 1015.1 |
| 20260905211545 | 25 | 291 | 1.6 | 6.4 | 0.00 | 0.00 | 0.00 | 68 | 1015.1 |
| 20260905210050 | 25 | 115 | 1.6 | 9.7 | 0.00 | 0.00 | 0.00 | 67 | 1015.1 |
| 20260905204549 | 26 | 89 | 3.2 | 9.7 | 0.00 | 0.00 | 0.00 | 64 | 1015.3 |
| 20260905203044 | 25 | 63 | 3.2 | 9.7 | 0.00 | 0.00 | 0.00 | 66 | 1015.2 |
| 20260905201551 | 25 | 105 | 4.8 | 11.3 | 0.00 | 0.00 | 0.00 | 64 | 1015.3 |
| 20260905200045 | 25 | 98 | 1.6 | 6.4 | 0.00 | 0.00 | 0.00 | 67 | 1015.6 |
| 20260905194544 | 26 | 356 | 0.0 | 4.8 | 0.00 | 0.00 | 0.00 | 68 | 1015.6 |
| 20260905193044 | 25 | 150 | 1.6 | 6.4 | 0.00 | 0.00 | 0.00 | 67 | 1015.6 |
| 20260905191541 | 25 | 72 | 6.4 | 12.9 | 0.00 | 0.00 | 0.00 | 68 | 1015.5 |
| 20260905190038 | 25 | 39 | 1.6 | 9.7 | 0.00 | 0.00 | 0.00 | 68 | 1015.8 |
| 20260905184552 | 25 | 50 | 3.2 | 9.7 | 0.00 | 0.00 | 0.00 | 70 | 1015.8 |
| 20260905183042 | 25 | 87 | 3.2 | 8.0 | 0.00 | 0.00 | 0.00 | 71 | 1016.0 |
| 20260905181604 | 25 | 32 | 3.2 | 8.0 | 0.00 | 0.00 | 0.00 | 69 | 1015.9 |
| 20260905180046 | 25 | 51 | 3.2 | 12.9 | 0.00 | 0.00 | 0.00 | 70 | 1015.9 |
| 20260905174543 | 25 | 130 | 3.2 | 9.7 | 0.00 | 0.00 | 0.00 | 71 | 1015.8 |
| 20260905173053 | 24 | 121 | 4.8 | 9.7 | 0.00 | 0.00 | 0.00 | 70 | 1015.8 |
| 20260905171547 | 24 | 28 | 4.8 | 12.9 | 0.00 | 0.00 | 0.00 | 70 | 1015.8 |
| 20260905170043 | 25 | 36 | 3.2 | 4.8 | 0.00 | 0.00 | 0.00 | 70 | 1016.0 |
| 20260905164540 | 24 | 202 | 3.2 | 9.7 | 0.00 | 0.00 | 0.00 | 71 | 1016.1 |
| 20260905163042 | 23 | 220 | 4.8 | 9.7 | 0.00 | 0.00 | 0.00 | 72 | 1016.2 |
| 20260905161559 | 23 | 35 | 3.2 | 11.3 | 0.00 | 0.00 | 0.00 | 74 | 1016.1 |
| 20260905160045 | 23 | 143 | 4.8 | 12.9 | 0.00 | 0.00 | 0.00 | 75 | 1016.3 |
| 20260905154544 | 22 | 305 | 3.2 | 8.0 | 0.00 | 0.38 | 0.00 | 75 | 1016.2 |
| 20260905153042 | 22 | 130 | 4.8 | 12.9 | 0.00 | 0.38 | 0.00 | 76 | 1016.1 |
| 20260905151542 | 22 | 46 | 3.2 | 8.0 | 0.00 | 0.38 | 0.00 | 77 | 1015.9 |
| 20260905150041 | 22 | 80 | 4.8 | 11.3 | 0.00 | 0.38 | 0.00 | 78 | 1015.7 |
| 20260905144539 | 21 | 127 | 4.8 | 9.7 | 0.00 | 0.79 | 0.00 | 81 | 1015.6 |
| 20260905143042 | 20 | 116 | 0.0 | 6.4 | 0.00 | 0.79 | 0.00 | 87 | 1015.4 |
| 20260905141541 | 20 | 79 | 0.0 | 6.4 | 0.00 | 0.79 | 0.00 | 87 | 1015.3 |
| 20260905140041 | 20 | 0 | 0.0 | 3.2 | 0.00 | 0.79 | 0.00 | 87 | 1015.3 |
| 20260905134539 | 20 | 103 | 0.0 | 4.8 | 0.00 | 2.64 | 0.00 | 88 | 1015.3 |
| 20260905133039 | 19 | 97 | 3.2 | 9.7 | 0.00 | 2.64 | 0.00 | 88 | 1015.2 |
| 20260905131539 | 19 | 86 | 1.6 | 4.8 | 0.00 | 2.64 | 0.00 | 89 | 1015.4 |
| 20260905130040 | 19 | 0 | 0.0 | 0.0 | 0.00 | 2.64 | 0.00 | 90 | 1015.6 |
| 20260905124539 | 19 | 118 | 0.0 | 1.6 | 0.00 | 4.45 | 0.00 | 89 | 1015.4 |
| 20260905123042 | 19 | 116 | 0.0 | 3.2 | 0.00 | 4.45 | 0.00 | 89 | 1015.6 |
| 20260905121541 | 18 | 0 | 0.0 | 8.0 | 0.00 | 4.45 | 0.00 | 89 | 1015.5 |
| 20260905120041 | 18 | 125 | 3.2 | 8.0 | 0.00 | 4.45 | 0.00 | 89 | 1015.0 |
| 20260905114540 | 18 | 98 | 3.2 | 9.7 | 0.00 | 4.47 | 0.00 | 89 | 1014.8 |
| 20260905113043 | 18 | 97 | 1.6 | 6.4 | 0.00 | 4.47 | 0.00 | 91 | 1014.9 |
| 20260905111544 | 18 | 0 | 1.6 | 6.4 | 0.00 | 4.47 | 0.00 | 91 | 1014.8 |
| 20260905110040 | 18 | 79 | 3.2 | 6.4 | 0.00 | 4.47 | 0.00 | 93 | 1014.7 |
| 20260905104555 | 19 | 122 | 0.0 | 3.2 | 0.00 | 4.52 | 0.00 | 94 | 1014.8 |
| 20260905103041 | 19 | 105 | 0.0 | 3.2 | 0.00 | 4.52 | 0.00 | 95 | 1014.7 |
| 20260905101540 | 19 | 115 | 1.6 | 4.8 | 0.00 | 4.52 | 0.00 | 95 | 1014.6 |
| 20260905100042 | 19 | 0 | 0.0 | 1.6 | 0.00 | 4.52 | 0.00 | 95 | 1014.8 |
| 20260905094541 | 19 | 145 | 0.0 | 3.2 | 0.00 | 4.52 | 0.00 | 95 | 1014.5 |
| 20260905093040 | 19 | 112 | 1.6 | 3.2 | 0.00 | 4.52 | 0.00 | 95 | 1014.5 |
| 20260905091552 | 19 | 0 | 0.0 | 1.6 | 0.00 | 4.52 | 0.00 | 96 | 1014.7 |
| 20260905090041 | 19 | 108 | 0.0 | 1.6 | 0.00 | 4.52 | 0.00 | 96 | 1014.5 |
| 20260905084604 | 19 | 146 | 0.0 | 0.0 | 0.00 | 4.52 | 0.00 | 96 | 1014.8 |
| 20260905083040 | 19 | 141 | 0.0 | 1.6 | 0.00 | 4.52 | 0.00 | 96 | 1014.5 |
| 20260905081539 | 19 | 130 | 0.0 | 1.6 | 0.00 | 4.52 | 0.00 | 96 | 1014.2 |
| 20260905080043 | 20 | 0 | 0.0 | 1.6 | 0.00 | 4.52 | 0.00 | 96 | 1014.1 |
| 20260905074545 | 20 | 0 | 0.0 | 3.2 | 0.00 | 4.52 | 0.00 | 96 | 1014.5 |
| 20260905073042 | 20 | 0 | 0.0 | 1.6 | 0.00 | 4.52 | 0.00 | 96 | 1014.2 |
| 20260905071546 | 20 | 0 | 0.0 | 1.6 | 0.00 | 4.52 | 0.00 | 96 | 1014.3 |
| 20260905070104 | 20 | 120 | 0.0 | 1.6 | 0.00 | 4.52 | 0.00 | 96 | 1014.4 |
| 20260905064543 | 20 | 0 | 0.0 | 0.0 | 0.00 | 4.52 | 0.00 | 96 | 1014.1 |
| 20260905063039 | 20 | 0 | 0.0 | 0.0 | 0.00 | 4.52 | 0.00 | 96 | 1014.1 |
| 20260905061540 | 20 | 134 | 0.0 | 1.6 | 0.00 | 4.52 | 0.00 | 96 | 1014.1 |
| 20260905060041 | 20 | 0 | 0.0 | 1.6 | 0.00 | 4.52 | 0.00 | 96 | 1014.4 |
| 20260905054550 | 20 | 0 | 0.0 | 3.2 | 0.00 | 4.52 | 0.00 | 96 | 1014.4 |
| 20260905053049 | 21 | 0 | 0.0 | 1.6 | 0.00 | 4.52 | 0.00 | 96 | 1014.4 |
| 20260905051547 | 21 | 0 | 0.0 | 0.0 | 0.00 | 4.52 | 0.00 | 96 | 1014.5 |
| 20260905050047 | 21 | 0 | 0.0 | 1.6 | 0.00 | 4.52 | 0.00 | 96 | 1014.5 |
| 20260905044549 | 21 | 104 | 0.0 | 1.6 | 0.00 | 4.52 | 0.00 | 96 | 1014.4 |
| 20260905043044 | 20 | 123 | 1.6 | 3.2 | 0.00 | 4.52 | 0.00 | 95 | 1014.9 |
| 20260905041554 | 20 | 0 | 0.0 | 0.0 | 0.00 | 4.52 | 0.00 | 95 | 1014.6 |
| 20260905040056 | 21 | 0 | 0.0 | 0.0 | 0.00 | 4.52 | 0.00 | 95 | 1014.7 |
| 20260905034549 | 21 | 0 | 0.0 | 0.0 | 0.00 | 4.52 | 4.52 | 95 | 1015.0 |
| 20260905033052 | 21 | 117 | 0.0 | 1.6 | 0.00 | 4.52 | 4.52 | 95 | 1015.0 |
| 20260905031549 | 21 | 0 | 0.0 | 0.0 | 0.00 | 4.52 | 4.52 | 95 | 1015.3 |
| 20260905030047 | 21 | 0 | 0.0 | 0.0 | 0.00 | 4.52 | 4.52 | 95 | 1015.6 |
| 20260905024548 | 21 | 0 | 0.0 | 0.0 | 0.00 | 4.52 | 4.52 | 95 | 1015.6 |
| 20260905023047 | 21 | 0 | 0.0 | 0.0 | 0.00 | 4.52 | 4.52 | 95 | 1015.5 |
| 20260905021548 | 21 | 0 | 0.0 | 0.0 | 0.00 | 4.52 | 4.52 | 95 | 1015.4 |
| 20260905020055 | 21 | 0 | 0.0 | 0.0 | 0.00 | 4.52 | 4.52 | 94 | 1015.2 |
| 20260905014541 | 21 | 0 | 0.0 | 0.0 | 0.00 | 4.52 | 4.52 | 94 | 1015.3 |
| 20260905013040 | 21 | 0 | 0.0 | 0.0 | 0.00 | 4.52 | 4.52 | 94 | 1015.4 |
| 20260905011548 | 21 | 0 | 0.0 | 0.0 | 0.00 | 4.52 | 4.52 | 93 | 1015.4 |
| 20260905004543 | 21 | 0 | 0.0 | 0.0 | 0.00 | 4.52 | 4.52 | 92 | 1015.2 |
| 20260905003044 | 22 | 0 | 0.0 | 0.0 | 0.00 | 4.52 | 4.52 | 92 | 1015.1 |
| 20260905001544 | 22 | 0 | 0.0 | 0.0 | 0.00 | 4.52 | 4.52 | 91 | 1015.1 |
| 20260905000044 | 23 | 0 | 0.0 | 0.0 | 0.00 | 4.52 | 4.52 | 90 | 1015.1 |